When you browse on this site, cookies collect data to enhance your experience and personalize the content and advertising you see.
Visit our Privacy Policy to learn more. By continuing to use the site, you agree to this use of cookies and data.
  • In Netherlands
  • List of Countries
  • For 7 days
  • Water Temperature
  • Weather Map
  • Weather Widgets
  • user-avatar
    Login

    Hourly Weather Herāt

    Today, 29 May, Friday

    Time Temperature Precipitation Wind Pressure Humidity
    00:00 +26°C° 0 mm 4 mps 677 mmHg 21%
    01:00 +26°C° 0 mm 4 mps 677 mmHg 22%
    02:00 +25°C° 0 mm 3 mps 677 mmHg 23%
    03:00 +24°C° 0 mm 3 mps 676 mmHg 25%
    04:00 +22°C° 0 mm 3 mps 676 mmHg 26%
    05:00 +25°C° 0 mm 4 mps 677 mmHg 24%
    06:00 +27°C° 0 mm 4 mps 678 mmHg 22%
    07:00 +29°C° 0 mm 5 mps 678 mmHg 19%
    08:00 +32°C° 0 mm 7 mps 679 mmHg 18%
    09:00 +33°C° 0 mm 9 mps 679 mmHg 16%
    10:00 +36°C° 0 mm 10 mps 679 mmHg 14%
    11:00 +37°C° 0 mm 11 mps 679 mmHg 13%
    12:00 +37°C° 0 mm 11 mps 678 mmHg 13%
    13:00 +38°C° 0 mm 11 mps 678 mmHg 12%
    14:00 +38°C° 0 mm 11 mps 678 mmHg 12%
    15:00 +38°C° 0 mm 11 mps 678 mmHg 12%
    16:00 +38°C° 0 mm 11 mps 678 mmHg 12%
    17:00 +36°C° 0 mm 10 mps 677 mmHg 13%
    18:00 +34°C° 0 mm 8 mps 677 mmHg 15%
    19:00 +32°C° 0 mm 7 mps 677 mmHg 16%
    20:00 +30°C° 0 mm 7 mps 677 mmHg 15%
    21:00 +29°C° 0 mm 7 mps 677 mmHg 15%
    22:00 +28°C° 0 mm 7 mps 678 mmHg 15%
    23:00 +28°C° 0 mm 7 mps 677 mmHg 15%

    Tomorrow, 30 May, Saturday

    Time Temperature Precipitation Wind Pressure Humidity
    00:00 +27°C° 0 mm 6 mps 677 mmHg 16%
    01:00 +26°C° 0 mm 5 mps 676 mmHg 16%
    02:00 +25°C° 0 mm 5 mps 676 mmHg 18%
    03:00 +23°C° 0 mm 4 mps 676 mmHg 20%
    04:00 +22°C° 0 mm 3 mps 676 mmHg 22%
    05:00 +25°C° 0 mm 3 mps 676 mmHg 20%
    06:00 +27°C° 0 mm 3 mps 677 mmHg 18%
    07:00 +28°C° 0 mm 3 mps 678 mmHg 16%
    08:00 +30°C° 0 mm 5 mps 678 mmHg 14%
    09:00 +33°C° 0 mm 7 mps 679 mmHg 12%
    10:00 +35°C° 0 mm 8 mps 679 mmHg 10%
    11:00 +37°C° 0 mm 9 mps 679 mmHg 10%
    12:00 +37°C° 0 mm 9 mps 679 mmHg 9%
    13:00 +38°C° 0 mm 9 mps 679 mmHg 9%
    14:00 +38°C° 0 mm 10 mps 678 mmHg 9%
    15:00 +37°C° 0 mm 10 mps 678 mmHg 8%
    16:00 +37°C° 0 mm 10 mps 678 mmHg 8%
    17:00 +35°C° 0 mm 9 mps 678 mmHg 9%
    18:00 +33°C° 0 mm 8 mps 678 mmHg 10%
    19:00 +31°C° 0 mm 8 mps 678 mmHg 10%
    20:00 +29°C° 0 mm 7 mps 678 mmHg 10%
    21:00 +28°C° 0 mm 6 mps 678 mmHg 10%
    22:00 +27°C° 0 mm 6 mps 678 mmHg 10%
    23:00 +26°C° 0 mm 5 mps 678 mmHg 11%

    Day after tomorrow, 31 May, Sunday

    Time Temperature Precipitation Wind Pressure Humidity
    00:00 +25°C° 0 mm 5 mps 678 mmHg 11%
    01:00 +23°C° 0 mm 4 mps 677 mmHg 11%
    02:00 +22°C° 0 mm 3 mps 677 mmHg 12%
    03:00 +21°C° 0 mm 3 mps 677 mmHg 13%
    04:00 +20°C° 0 mm 2 mps 677 mmHg 13%
    05:00 +23°C° 0 mm 2 mps 677 mmHg 12%
    06:00 +25°C° 0 mm 2 mps 678 mmHg 10%
    07:00 +28°C° 0 mm 2 mps 679 mmHg 9%
    08:00 +29°C° 0 mm 3 mps 679 mmHg 8%
    09:00 +32°C° 0 mm 4 mps 680 mmHg 7%
    10:00 +34°C° 0 mm 5 mps 680 mmHg 5%
    11:00 +35°C° 0 mm 7 mps 680 mmHg 5%
    12:00 +37°C° 0 mm 8 mps 680 mmHg 5%
    13:00 +38°C° 0 mm 9 mps 679 mmHg 5%
    14:00 +38°C° 0 mm 9 mps 679 mmHg 5%
    15:00 +38°C° 0 mm 10 mps 679 mmHg 6%
    16:00 +38°C° 0 mm 10 mps 678 mmHg 6%
    17:00 +35°C° 0 mm 9 mps 678 mmHg 7%
    18:00 +33°C° 0 mm 8 mps 678 mmHg 8%
    19:00 +30°C° 0 mm 7 mps 678 mmHg 9%
    20:00 +29°C° 0 mm 6 mps 678 mmHg 9%
    21:00 +28°C° 0 mm 5 mps 679 mmHg 10%
    22:00 +26°C° 0 mm 4 mps 679 mmHg 10%
    23:00 +26°C° 0 mm 4 mps 678 mmHg 11%

    1 June, Monday

    Time Temperature Precipitation Wind Pressure Humidity
    00:00 +25°C° 0 mm 4 mps 678 mmHg 11%
    01:00 +24°C° 0 mm 3 mps 678 mmHg 12%
    02:00 +24°C° 0 mm 3 mps 677 mmHg 12%
    03:00 +22°C° 0 mm 3 mps 677 mmHg 13%
    04:00 +21°C° 0 mm 2 mps 677 mmHg 14%
    05:00 +24°C° 0 mm 2 mps 678 mmHg 13%
    06:00 +26°C° 0 mm 2 mps 678 mmHg 11%
    07:00 +29°C° 0 mm 2 mps 679 mmHg 10%
    08:00 +31°C° 0 mm 3 mps 679 mmHg 9%
    09:00 +33°C° 0 mm 4 mps 680 mmHg 8%
    10:00 +35°C° 0 mm 5 mps 680 mmHg 6%
    11:00 +36°C° 0 mm 6 mps 680 mmHg 6%
    12:00 +39°C° 0 mm 7 mps 680 mmHg 6%
    13:00 +40°C° 0 mm 8 mps 680 mmHg 6%
    14:00 +39°C° 0 mm 8 mps 680 mmHg 6%
    15:00 +39°C° 0 mm 8 mps 679 mmHg 6%
    16:00 +39°C° 0 mm 9 mps 679 mmHg 7%
    17:00 +36°C° 0 mm 7 mps 679 mmHg 8%
    18:00 +34°C° 0 mm 6 mps 678 mmHg 10%
    19:00 +32°C° 0 mm 5 mps 678 mmHg 11%
    20:00 +30°C° 0 mm 4 mps 678 mmHg 12%
    21:00 +29°C° 0 mm 4 mps 678 mmHg 13%
    22:00 +27°C° 0 mm 3 mps 678 mmHg 14%
    23:00 +27°C° 0 mm 3 mps 677 mmHg 15%

    2 June, Tuesday

    Time Temperature Precipitation Wind Pressure Humidity
    00:00 +26°C° 0 mm 3 mps 677 mmHg 15%
    01:00 +25°C° 0 mm 2 mps 677 mmHg 16%
    02:00 +25°C° 0 mm 2 mps 677 mmHg 15%
    03:00 +25°C° 0 mm 3 mps 677 mmHg 15%
    04:00 +25°C° 0 mm 3 mps 676 mmHg 15%
    05:00 +27°C° 0 mm 3 mps 677 mmHg 13%
    06:00 +29°C° 0 mm 2 mps 678 mmHg 12%
    07:00 +31°C° 0 mm 2 mps 678 mmHg 11%
    08:00 +34°C° 0 mm 2 mps 678 mmHg 10%
    09:00 +36°C° 0 mm 2 mps 679 mmHg 9%
    10:00 +38°C° 0 mm 2 mps 679 mmHg 8%
    11:00 +39°C° 0 mm 3 mps 679 mmHg 7%
    12:00 +41°C° 0 mm 4 mps 679 mmHg 7%
    13:00 +42°C° 0 mm 4 mps 679 mmHg 7%
    14:00 +42°C° 0 mm 5 mps 679 mmHg 7%
    15:00 +43°C° 0 mm 7 mps 678 mmHg 7%
    16:00 +43°C° 0 mm 8 mps 678 mmHg 7%
    17:00 +40°C° 0 mm 7 mps 678 mmHg 8%
    18:00 +38°C° 0 mm 6 mps 677 mmHg 9%
    19:00 +35°C° 0 mm 6 mps 677 mmHg 10%
    20:00 +33°C° 0 mm 5 mps 677 mmHg 10%
    21:00 +32°C° 0 mm 4 mps 677 mmHg 11%
    22:00 +30°C° 0 mm 4 mps 677 mmHg 11%
    23:00 +29°C° 0 mm 3 mps 677 mmHg 12%

    3 June, Wednesday

    Time Temperature Precipitation Wind Pressure Humidity
    00:00 +28°C° 0 mm 3 mps 677 mmHg 12%
    01:00 +27°C° 0 mm 2 mps 676 mmHg 12%
    02:00 +27°C° 0 mm 2 mps 676 mmHg 12%
    03:00 +26°C° 0 mm 2 mps 676 mmHg 12%
    04:00 +25°C° 0 mm 2 mps 676 mmHg 13%
    05:00 +27°C° 0 mm 2 mps 677 mmHg 12%
    06:00 +30°C° 0 mm 2 mps 677 mmHg 10%
    07:00 +32°C° 0 mm 2 mps 678 mmHg 9%
    08:00 +35°C° 0 mm 4 mps 678 mmHg 8%
    09:00 +38°C° 0 mm 6 mps 679 mmHg 7%
    10:00 +40°C° 0 mm 8 mps 679 mmHg 6%
    11:00 +42°C° 0 mm 9 mps 679 mmHg 6%
    12:00 +42°C° 0 mm 9 mps 679 mmHg 6%
    13:00 +43°C° 0 mm 10 mps 679 mmHg 5%
    14:00 +42°C° 0 mm 9 mps 678 mmHg 5%
    15:00 +42°C° 0 mm 9 mps 678 mmHg 5%
    16:00 +42°C° 0 mm 9 mps 678 mmHg 5%
    17:00 +39°C° 0 mm 8 mps 678 mmHg 6%
    18:00 +36°C° 0 mm 6 mps 678 mmHg 8%
    19:00 +34°C° 0 mm 5 mps 677 mmHg 9%
    20:00 +33°C° 0 mm 5 mps 678 mmHg 9%
    21:00 +32°C° 0 mm 5 mps 678 mmHg 9%
    22:00 +30°C° 0 mm 5 mps 678 mmHg 9%
    23:00 +30°C° 0 mm 5 mps 678 mmHg 10%
    Show more